Amritsar, India

6:21 PM IST on April 22, 2018 (GMT +0530)
Amritsar

Weather History for VIAR - April, 2014

Change the Weather History Date:

Tuesday, April 15, 2014

  Actual Average Record
Temperature  
Mean Temperature 72 °F -  
Max Temperature 91 °F 93 °F 106 °F (2017)
Min Temperature 53 °F 67 °F 53 °F (2014)
Cooling Degree Days 7    
Growing Degree Days 22 (Base 50)    
Moisture  
Dew Point 56 °F    
Average Humidity 56    
Maximum Humidity 83    
Minimum Humidity 17    
Precipitation  
Precipitation 0.00 in - - ()
Sea Level Pressure  
Sea Level Pressure 29.90 in    
Wind  
Wind Speed 2 mph ()    
Max Wind Speed 9 mph    
Max Gust Speed -    
Visibility 3.1 miles    
Events      
Averages and records for this station are not official NWS values.
T = Trace of Precipitation, MM = Missing Value Source: Averaged Metar Reports

Daily Weather History Graph

Daily Weather History Graph

Search for Another Location

Airport or City:

Astronomy

Apr. 15, 2014 Rise Set
Actual Time 6:02 AM IST 6:59 PM IST
Civil Twilight 5:37 AM IST 7:24 PM IST
Nautical Twilight 5:08 AM IST 7:53 PM IST
Astronomical Twilight 4:37 AM IST 8:24 PM IST
Moon 7:10 PM IST (4/15) 5:52 AM IST (4/15)
Length of Visible Light 13h 46m
Length of Day
12h 56m
Full, 100% of the Moon is Illuminated
Apr 15
Full
Apr 15
Full
Apr 22
Last Quarter
Apr 29
New
May 7
First Quarter

Hourly Weather History & Observations

Time (IST) Temp. Heat Index Dew Point Humidity Pressure Visibility Wind Dir Wind Speed Gust Speed Precip Events Conditions
12:00 AM 68.0 °F - 59.0 °F 73% 29.92 in 2.5 mi Calm Calm - N/A   Haze
12:30 AM 68.0 °F - 59.0 °F 73% 29.92 in 2.5 mi Calm Calm - N/A   Haze
1:00 AM 64.4 °F - 57.2 °F 77% 29.92 in 2.5 mi Calm Calm - N/A   Scattered Clouds
1:30 AM 64.4 °F - 57.2 °F 77% 29.92 in 2.5 mi Calm Calm - N/A   Scattered Clouds
2:00 AM 64.4 °F - 57.2 °F 77% 29.89 in 2.5 mi Calm Calm - N/A   Scattered Clouds
2:30 AM 64.4 °F - 57.2 °F 77% 29.89 in 2.5 mi Calm Calm - N/A   Scattered Clouds
3:00 AM 64.4 °F - 57.2 °F 77% 29.89 in 2.5 mi Calm Calm - N/A   Scattered Clouds
3:30 AM 64.4 °F - 55.4 °F 73% 29.89 in 2.5 mi Calm Calm - N/A   Scattered Clouds
4:00 AM 60.8 °F - 55.4 °F 82% 29.89 in 2.5 mi NNW 5.8 mph - N/A   Scattered Clouds
4:30 AM 60.8 °F - 55.4 °F 82% 29.89 in 2.5 mi NNW 5.8 mph - N/A   Scattered Clouds
5:00 AM 60.8 °F - 55.4 °F 82% 29.89 in 2.5 mi NNW 3.5 mph - N/A   Scattered Clouds
5:30 AM 61 °F - 55 °F 76% 29.89 in 2 mi Calm Calm - -   Mist
5:30 AM 60.8 °F - 55.4 °F 82% 29.89 in 2.5 mi Calm Calm - N/A   Scattered Clouds
6:00 AM 59.0 °F - 53.6 °F 82% 29.89 in 2.5 mi Variable 2.3 mph - N/A   Scattered Clouds
6:30 AM 60.8 °F - 55.4 °F 82% 29.92 in 2.5 mi Calm Calm - N/A   Scattered Clouds
7:00 AM 60.8 °F - 55.4 °F 82% 29.92 in 2.2 mi Variable 2.3 mph - N/A   Scattered Clouds
7:30 AM 64.4 °F - 57.2 °F 77% 29.92 in 1.9 mi Variable 3.5 mph - N/A   Scattered Clouds
8:00 AM 68.0 °F - 59.0 °F 73% 29.92 in 1.9 mi Calm Calm - N/A   Scattered Clouds
8:30 AM 72 °F - 59 °F 54% 29.91 in 1 mi Calm Calm - -   Haze
8:30 AM 71.6 °F - 59.0 °F 64% 29.92 in 1.9 mi Calm Calm - N/A   Haze
9:00 AM 75.2 °F - 57.2 °F 53% 29.95 in 1.9 mi Calm Calm - N/A   Haze
9:30 AM 77.0 °F - 59.0 °F 54% 29.95 in 2.5 mi Calm Calm - N/A   Haze
10:00 AM 80.6 °F 80.8 °F 57.2 °F 45% 29.95 in 3.1 mi Variable 2.3 mph - N/A   Haze
10:30 AM 82.4 °F 82.0 °F 57.2 °F 42% 29.95 in 3.7 mi Variable 2.3 mph - N/A   Mostly Cloudy
11:00 AM 86.0 °F 84.2 °F 53.6 °F 33% 29.95 in 4.3 mi Variable 3.5 mph - N/A   Scattered Clouds
11:30 AM 86 °F - 51 °F 20% 29.91 in 2 mi 3.5 mph - -   Partly Cloudy
11:30 AM 86.0 °F - 50.0 °F 29% 29.95 in 5.0 mi Variable 3.5 mph - N/A   Scattered Clouds
12:00 PM 87.8 °F - 42.8 °F 21% 29.92 in 5.0 mi Variable 2.3 mph - N/A   Scattered Clouds
12:30 PM 89.6 °F - 48.2 °F 24% 29.92 in 5.0 mi West 3.5 mph - N/A   Scattered Clouds
1:00 PM 89.6 °F - 46.4 °F 22% 29.92 in 5.0 mi WSW 5.8 mph - N/A   Mostly Cloudy
1:30 PM 89.6 °F - 46.4 °F 22% 29.92 in 5.0 mi NW 6.9 mph - N/A   Mostly Cloudy
2:00 PM 89.6 °F - 50.0 °F 26% 29.89 in 5.0 mi WNW 6.9 mph - N/A   Overcast
2:30 PM 89 °F - 50 °F 17% 29.86 in 2 mi NW 6.9 mph - -   Overcast
2:30 PM 89.6 °F - 51.8 °F 27% 29.89 in 5.0 mi NW 6.9 mph - N/A   Overcast
3:00 PM 87.8 °F - 51.8 °F 29% 29.89 in 5.0 mi NW 5.8 mph - N/A   Overcast
3:30 PM 87.8 °F - 51.8 °F 29% 29.86 in 5.0 mi NW 6.9 mph - N/A   Overcast
4:00 PM 86.0 °F - 51.8 °F 31% 29.86 in 5.0 mi Variable 2.3 mph - N/A   Overcast
4:30 PM 86.0 °F 84.9 °F 57.2 °F 37% 29.86 in 3.7 mi Calm Calm - N/A   Unknown
5:00 PM 84.2 °F 85.6 °F 64.4 °F 51% 29.86 in 3.7 mi Variable 3.5 mph - N/A   Unknown
5:30 PM 83 °F - 61 °F 37% 29.82 in 2 mi WNW 6.9 mph - -   Overcast
5:30 PM 82.4 °F 86.3 °F 69.8 °F 66% 32.43 in 3.7 mi WNW 6.9 mph - N/A   Overcast
6:00 PM 82.4 °F 83.4 °F 62.6 °F 51% 29.86 in 3.7 mi NW 3.5 mph - N/A   Overcast
6:30 PM 80.6 °F 81.5 °F 60.8 °F 51% 29.86 in 3.7 mi NNW 6.9 mph - N/A   Overcast
7:30 PM 78.8 °F - 59.0 °F 51% 29.86 in 3.1 mi North 9.2 mph - N/A   Scattered Clouds
8:00 PM 78.8 °F - 60.8 °F 54% 29.86 in 2.5 mi North 9.2 mph - N/A   Haze
8:30 PM 77.0 °F - 60.8 °F 57% 29.86 in 2.5 mi SW 6.9 mph - N/A   Haze
9:30 PM 71.6 °F - 62.6 °F 73% 29.86 in 2.5 mi Calm Calm - N/A   Haze
10:00 PM 71.6 °F - 60.8 °F 69% 29.86 in 2.5 mi Calm Calm - N/A   Mostly Cloudy
10:30 PM 71.6 °F - 60.8 °F 69% 29.86 in 2.5 mi Calm Calm - N/A   Scattered Clouds
11:00 PM 66.2 °F - 60.8 °F 83% 29.86 in 2.5 mi Calm Calm - N/A   Scattered Clouds
11:30 PM 66.2 °F - 60.8 °F 83% 29.86 in 2.2 mi Calm Calm - N/A   Scattered Clouds